This is the latest recevied weather packets stored in our database for station/object W7BTL. If no packets are shown the sender has not sent any weather packets the latest 10 day(s).
| Time | Temp. | Humidity | Pressure | Rain* | Wind** | Luminosity | Snow |
|---|---|---|---|---|---|---|---|
| 1788359737 | 18.89° C | 79% | 1015.8 hPa | 0 mm | - | 78 W/m² | - |
| 1788359433 | 18.33° C | 81% | 1015.7 hPa | 0 mm | - | 77 W/m² | - |
| 1788359129 | 17.78° C | 85% | 1015.4 hPa | 0 mm | - | 72 W/m² | - |
| 1788358824 | 17.22° C | 90% | 1015.3 hPa | 0 mm | - | 66 W/m² | - |
| 1788358524 | 17.22° C | 95% | 1015.5 hPa | 0 mm | - | 57 W/m² | - |
| 1788358220 | 16.67° C | 96% | 1015.2 hPa | 0 mm | - | 49 W/m² | - |
| 1788357919 | 15.56° C | 96% | 1015.6 hPa | 0 mm | - | 41 W/m² | - |
| 1788357615 | 15° C | 96% | 1015.4 hPa | 0 mm | - | 34 W/m² | - |
| 1788357309 | 15° C | 95% | 1015.3 hPa | 0 mm | - | 20 W/m² | - |
| 1788357009 | 15° C | 95% | 1015.2 hPa | 0 mm | - | 17 W/m² | - |
| 1788356706 | 15° C | 96% | 1015.2 hPa | 0 mm | - | 14 W/m² | - |
| 1788356406 | 14.44° C | 95% | 1015.2 hPa | 0 mm | - | 10 W/m² | - |
| 1788356100 | 14.44° C | 95% | 1015.2 hPa | 0 mm | - | 7 W/m² | - |
| 1788355795 | 15° C | 95% | 1015.1 hPa | 0 mm | - | 4 W/m² | - |
| 1788355490 | 14.44° C | 95% | 1015 hPa | 0 mm | - | 2 W/m² | - |
| 1788355185 | 14.44° C | 95% | 1015 hPa | 0 mm | - | 1 W/m² | - |
| 1788354882 | 14.44° C | 94% | 1014.8 hPa | 0 mm | - | 0 W/m² | - |
| 1788354581 | 14.44° C | 94% | 1014.9 hPa | 0 mm | - | 0 W/m² | - |
| 1788354277 | 14.44° C | 94% | 1015 hPa | 0 mm | - | 0 W/m² | - |
| 1788353977 | 14.44° C | 94% | 1015 hPa | 0 mm | - | 0 W/m² | - |
| 1788353673 | 15° C | 94% | 1015.1 hPa | 0 mm | - | 0 W/m² | - |
| 1788353369 | 15° C | 94% | 1015 hPa | 0 mm | - | 0 W/m² | - |
| 1788353065 | 15° C | 94% | 1015.1 hPa | 0 mm | - | 0 W/m² | - |
| 1788352760 | 15° C | 94% | 1015 hPa | 0 mm | - | 0 W/m² | - |
| 1788352456 | 14.44° C | 93% | 1015.3 hPa | 0 mm | - | 0 W/m² | - |
* Rain latest hour (hover to see other rain measurements)
** Current wind speed in m/s (hover to see current wind gust speed)